Time,TemperatureF,DewpointF,PressureIn,WindDirection,WindDirectionDegrees,WindSpeedMPH,WindSpeedGustMPH,Humidity,HourlyPrecipIn,Conditions,Clouds,dailyrainin,SolarRadiationWatts/m^2,SoftwareType,DateUTC
2013-07-18 00:02:00,74.3,72.9,30.14,SSW,196,0.0,0.0,92,0.00,,,0.12,0.0,meteohub,2013-07-18 04:02:00,
2013-07-18 00:04:00,74.3,72.9,30.14,SSW,196,0.0,0.0,92,0.00,,,0.12,0.0,meteohub,2013-07-18 04:04:00,
2013-07-18 00:07:00,74.3,72.9,30.14,SSW,196,0.0,0.0,92,0.00,,,0.00,0.0,meteohub,2013-07-18 04:07:00,
2013-07-18 00:13:00,74.3,72.9,30.14,SSW,196,0.0,0.0,92,0.00,,,0.00,0.0,meteohub,2013-07-18 04:13:00,
2013-07-18 00:16:00,74.3,72.9,30.14,SSW,196,0.0,0.0,92,0.00,,,0.00,0.0,meteohub,2013-07-18 04:16:00,
2013-07-18 00:22:00,74.1,72.7,30.14,SSW,196,0.0,0.0,92,0.00,,,0.00,0.0,meteohub,2013-07-18 04:22:00,
2013-07-18 00:27:00,74.1,72.7,30.14,SSW,196,0.0,0.0,92,0.00,,,0.00,0.0,meteohub,2013-07-18 04:27:00,
2013-07-18 00:32:00,74.1,72.7,30.14,SSW,196,0.0,0.0,92,0.00,,,0.00,0.0,meteohub,2013-07-18 04:32:00,
2013-07-18 00:37:00,73.9,72.5,30.14,SSW,196,0.0,0.0,92,0.00,,,0.00,0.0,meteohub,2013-07-18 04:37:00,
2013-07-18 00:42:00,73.8,72.3,30.14,SSW,196,0.0,0.0,92,0.00,,,0.00,0.0,meteohub,2013-07-18 04:42:00,
2013-07-18 00:47:00,73.8,72.3,30.14,SSW,196,0.0,0.0,92,0.00,,,0.00,0.0,meteohub,2013-07-18 04:47:00,
2013-07-18 00:52:00,73.6,72.1,30.14,SSW,196,0.0,0.0,92,0.00,,,0.00,0.0,meteohub,2013-07-18 04:52:00,
2013-07-18 00:57:00,73.6,72.1,30.13,SSW,196,0.0,0.0,92,0.00,,,0.00,0.0,meteohub,2013-07-18 04:57:00,
2013-07-18 01:02:00,73.4,72.0,30.14,SSW,196,0.0,0.0,92,0.00,,,0.00,0.0,meteohub,2013-07-18 05:02:00,
2013-07-18 01:07:00,73.4,72.0,30.14,SSW,196,0.0,0.0,92,0.00,,,0.00,0.0,meteohub,2013-07-18 05:07:00,
2013-07-18 01:12:00,73.4,72.0,30.14,SSW,196,0.0,0.0,92,0.00,,,0.00,0.0,meteohub,2013-07-18 05:12:00,
2013-07-18 01:17:00,73.4,72.0,30.14,SSW,196,0.0,0.0,92,0.00,,,0.00,0.0,meteohub,2013-07-18 05:17:00,
2013-07-18 01:22:00,73.2,71.8,30.13,SSW,196,0.0,0.0,92,0.00,,,0.00,0.0,meteohub,2013-07-18 05:22:00,
2013-07-18 01:27:00,73.2,71.8,30.13,SSW,196,0.0,0.0,92,0.00,,,0.00,0.0,meteohub,2013-07-18 05:27:00,
2013-07-18 01:32:00,73.2,71.8,30.13,SSW,196,0.0,0.0,92,0.00,,,0.00,0.0,meteohub,2013-07-18 05:32:00,
2013-07-18 01:37:00,73.2,71.8,30.13,SSW,196,0.0,0.0,92,0.00,,,0.00,0.0,meteohub,2013-07-18 05:37:00,
2013-07-18 01:42:00,73.2,71.8,30.12,SSW,196,0.0,0.0,92,0.00,,,0.00,0.0,meteohub,2013-07-18 05:42:00,
2013-07-18 01:47:00,73.2,71.8,30.12,SSW,196,0.0,0.0,92,0.00,,,0.00,0.0,meteohub,2013-07-18 05:47:00,
2013-07-18 01:52:00,73.2,71.8,30.12,SSW,196,0.0,0.0,92,0.00,,,0.00,0.0,meteohub,2013-07-18 05:52:00,
2013-07-18 01:57:00,72.9,71.4,30.12,SSW,196,0.0,0.0,92,0.00,,,0.00,0.0,meteohub,2013-07-18 05:57:00,
2013-07-18 02:02:00,72.9,71.4,30.12,SSW,196,0.0,0.0,92,0.00,,,0.00,0.0,meteohub,2013-07-18 06:02:00,
2013-07-18 02:07:00,72.9,71.4,30.12,SSW,196,0.0,0.0,92,0.00,,,0.00,0.0,meteohub,2013-07-18 06:07:00,
2013-07-18 02:12:00,72.7,71.2,30.12,SSW,196,0.0,0.0,92,0.00,,,0.00,0.0,meteohub,2013-07-18 06:12:00,
2013-07-18 02:17:00,72.7,71.2,30.12,SSW,196,0.0,0.0,92,0.00,,,0.00,0.0,meteohub,2013-07-18 06:17:00,
2013-07-18 02:22:00,72.7,71.2,30.12,SSW,196,0.0,0.0,92,0.00,,,0.00,0.0,meteohub,2013-07-18 06:22:00,
2013-07-18 02:27:00,72.5,71.1,30.12,SSW,196,0.0,0.0,92,0.00,,,0.00,0.0,meteohub,2013-07-18 06:27:00,
2013-07-18 02:32:00,72.5,71.1,30.12,SSW,196,0.0,0.0,92,0.00,,,0.00,0.0,meteohub,2013-07-18 06:32:00,
2013-07-18 02:37:00,72.5,71.1,30.12,SSW,196,0.0,0.0,92,0.00,,,0.00,0.0,meteohub,2013-07-18 06:37:00,
2013-07-18 02:42:00,72.5,71.1,30.12,SSW,196,0.0,0.0,92,0.00,,,0.00,0.0,meteohub,2013-07-18 06:42:00,
2013-07-18 02:47:00,72.3,70.9,30.12,SSW,196,0.0,0.0,92,0.00,,,0.00,0.0,meteohub,2013-07-18 06:47:00,
2013-07-18 02:52:00,72.3,70.9,30.11,SSW,196,0.0,0.0,92,0.00,,,0.00,0.0,meteohub,2013-07-18 06:52:00,
2013-07-18 02:57:00,72.1,70.7,30.12,SSW,196,0.0,0.0,92,0.00,,,0.00,0.0,meteohub,2013-07-18 06:57:00,
2013-07-18 03:02:00,72.1,70.7,30.11,SSW,196,0.0,0.0,92,0.00,,,0.00,0.0,meteohub,2013-07-18 07:02:00,
2013-07-18 03:07:00,72.0,70.5,30.11,SSW,196,0.0,0.0,92,0.00,,,0.00,0.0,meteohub,2013-07-18 07:07:00,
2013-07-18 03:12:00,72.0,70.5,30.11,SSW,196,0.0,0.0,92,0.00,,,0.00,0.0,meteohub,2013-07-18 07:12:00,
2013-07-18 03:17:00,72.0,70.5,30.11,SSW,196,0.0,0.0,92,0.00,,,0.00,0.0,meteohub,2013-07-18 07:17:00,
2013-07-18 03:22:00,71.8,70.3,30.11,SSW,196,0.0,0.0,92,0.00,,,0.00,0.0,meteohub,2013-07-18 07:22:00,
2013-07-18 03:27:00,71.8,70.3,30.11,SSW,196,0.0,0.0,92,0.00,,,0.00,0.0,meteohub,2013-07-18 07:27:00,
2013-07-18 03:32:00,71.6,70.2,30.11,SSW,196,0.0,0.0,92,0.00,,,0.00,0.0,meteohub,2013-07-18 07:32:00,
2013-07-18 03:37:00,71.6,70.2,30.11,SSW,196,0.0,0.0,92,0.00,,,0.00,0.0,meteohub,2013-07-18 07:37:00,
2013-07-18 03:42:00,71.6,70.2,30.11,SSW,196,0.0,0.0,92,0.00,,,0.00,0.0,meteohub,2013-07-18 07:42:00,
2013-07-18 03:47:00,71.4,70.0,30.11,SSW,196,0.0,0.0,92,0.00,,,0.00,0.0,meteohub,2013-07-18 07:47:00,
2013-07-18 03:52:00,71.4,70.0,30.11,SSW,196,0.0,0.0,92,0.00,,,0.00,0.0,meteohub,2013-07-18 07:52:00,
2013-07-18 03:57:00,71.4,70.0,30.11,SSW,196,0.0,0.0,92,0.00,,,0.00,0.0,meteohub,2013-07-18 07:57:00,
2013-07-18 04:02:00,71.2,69.8,30.11,SSW,196,0.0,0.0,92,0.00,,,0.00,0.0,meteohub,2013-07-18 08:02:00,
2013-07-18 04:07:00,71.1,69.6,30.11,SSW,196,0.0,0.0,92,0.00,,,0.00,0.0,meteohub,2013-07-18 08:07:00,
2013-07-18 04:12:00,71.1,69.6,30.11,SSW,196,0.0,0.0,92,0.00,,,0.00,0.0,meteohub,2013-07-18 08:12:00,
2013-07-18 04:17:00,71.1,69.6,30.11,SSW,196,0.0,0.0,92,0.00,,,0.00,0.0,meteohub,2013-07-18 08:17:00,
2013-07-18 04:22:00,71.1,69.6,30.11,SSW,196,0.0,0.0,92,0.00,,,0.00,0.0,meteohub,2013-07-18 08:22:00,
2013-07-18 04:27:00,71.1,69.6,30.11,SSW,196,0.0,0.0,92,0.00,,,0.00,0.0,meteohub,2013-07-18 08:27:00,
2013-07-18 04:32:00,70.9,69.4,30.11,SSW,196,0.0,0.0,92,0.00,,,0.00,0.0,meteohub,2013-07-18 08:32:00,
2013-07-18 04:37:00,70.9,69.4,30.11,SSW,196,0.0,0.0,92,0.00,,,0.00,0.0,meteohub,2013-07-18 08:37:00,
2013-07-18 04:42:00,70.9,69.4,30.11,SSW,196,0.0,0.0,92,0.00,,,0.00,0.0,meteohub,2013-07-18 08:42:00,
2013-07-18 04:47:00,70.9,69.6,30.10,SSW,196,0.0,0.0,93,0.00,,,0.00,0.0,meteohub,2013-07-18 08:47:00,
2013-07-18 04:52:00,70.9,69.6,30.11,SSW,196,0.0,0.0,93,0.00,,,0.00,0.0,meteohub,2013-07-18 08:52:00,
2013-07-18 04:57:00,70.9,69.6,30.10,SSW,196,0.0,0.0,93,0.00,,,0.00,0.0,meteohub,2013-07-18 08:57:00,
2013-07-18 05:02:00,70.9,69.6,30.10,SSW,196,0.0,0.0,93,0.00,,,0.00,0.0,meteohub,2013-07-18 09:02:00,
2013-07-18 05:07:00,70.7,69.4,30.10,SSW,196,0.0,0.0,93,0.00,,,0.00,0.0,meteohub,2013-07-18 09:07:00,
2013-07-18 05:12:00,70.7,69.4,30.10,SSW,196,0.0,0.0,93,0.00,,,0.00,0.0,meteohub,2013-07-18 09:12:00,
2013-07-18 05:17:00,70.7,69.4,30.10,SSW,196,0.0,0.0,93,0.00,,,0.00,0.0,meteohub,2013-07-18 09:17:00,
2013-07-18 05:22:00,70.7,69.4,30.10,SSW,196,0.0,0.0,93,0.00,,,0.00,0.0,meteohub,2013-07-18 09:22:00,
2013-07-18 05:27:00,70.7,69.4,30.10,SSW,196,0.0,0.0,93,0.00,,,0.00,0.0,meteohub,2013-07-18 09:27:00,
2013-07-18 05:32:00,70.7,69.4,30.10,SSW,196,0.0,0.0,93,0.00,,,0.00,0.0,meteohub,2013-07-18 09:32:00,
2013-07-18 05:37:00,70.7,69.4,30.10,SSW,196,0.0,0.0,93,0.00,,,0.00,0.0,meteohub,2013-07-18 09:37:00,
2013-07-18 05:42:00,70.7,69.4,30.10,SSW,196,0.0,0.0,93,0.00,,,0.00,0.0,meteohub,2013-07-18 09:42:00,
2013-07-18 05:47:00,70.5,69.3,30.10,SSW,196,0.0,0.0,93,0.00,,,0.00,0.0,meteohub,2013-07-18 09:47:00,
2013-07-18 05:52:00,70.5,69.3,30.11,SSW,196,0.0,0.0,93,0.00,,,0.00,0.0,meteohub,2013-07-18 09:52:00,
2013-07-18 05:59:00,70.5,69.3,30.11,SSW,196,0.0,0.0,93,0.00,,,0.00,0.0,meteohub,2013-07-18 09:59:00,
2013-07-18 06:05:00,70.5,69.3,30.11,SSW,196,0.0,0.0,93,0.00,,,0.00,0.0,meteohub,2013-07-18 10:05:00,
2013-07-18 06:11:00,70.3,69.1,30.11,SSW,196,0.0,0.0,93,0.00,,,0.00,5.0,meteohub,2013-07-18 10:11:00,
2013-07-18 06:17:00,70.2,68.9,30.11,SSW,196,0.0,0.0,93,0.00,,,0.00,9.0,meteohub,2013-07-18 10:17:00,
2013-07-18 06:22:00,70.2,68.9,30.11,SSW,196,0.0,0.0,93,0.00,,,0.00,16.0,meteohub,2013-07-18 10:22:00,
2013-07-18 06:27:00,70.2,68.9,30.11,SSW,196,0.0,0.0,93,0.00,,,0.00,21.0,meteohub,2013-07-18 10:27:00,
2013-07-18 06:32:00,70.2,68.9,30.11,SSW,196,0.0,0.0,93,0.00,,,0.00,26.0,meteohub,2013-07-18 10:32:00,
2013-07-18 06:37:00,70.2,68.9,30.11,SSW,196,0.0,0.0,93,0.00,,,0.00,33.0,meteohub,2013-07-18 10:37:00,
2013-07-18 06:42:00,70.2,68.9,30.11,SSW,196,0.0,0.0,93,0.00,,,0.00,42.0,meteohub,2013-07-18 10:42:00,
2013-07-18 06:47:00,70.2,68.9,30.11,SSW,196,0.0,0.0,93,0.00,,,0.00,54.0,meteohub,2013-07-18 10:47:00,
2013-07-18 06:52:00,70.3,69.1,30.11,SSW,196,0.0,0.0,93,0.00,,,0.00,70.0,meteohub,2013-07-18 10:52:00,
2013-07-18 06:57:00,70.5,69.3,30.11,SSW,196,0.0,0.0,93,0.00,,,0.00,79.0,meteohub,2013-07-18 10:57:00,
2013-07-18 07:02:00,70.7,69.4,30.11,SSW,196,0.0,0.0,93,0.00,,,0.00,100.0,meteohub,2013-07-18 11:02:00,
2013-07-18 07:07:00,70.9,69.6,30.11,SSW,196,0.0,0.0,93,0.00,,,0.00,83.0,meteohub,2013-07-18 11:07:00,
2013-07-18 07:12:00,71.1,69.8,30.11,SW,229,0.0,0.0,93,0.00,,,0.00,109.0,meteohub,2013-07-18 11:12:00,
2013-07-18 07:17:00,71.2,70.0,30.11,West,267,0.0,0.0,93,0.00,,,0.00,156.0,meteohub,2013-07-18 11:17:00,
2013-07-18 07:22:00,71.6,70.3,30.12,West,267,0.0,0.0,93,0.00,,,0.00,155.0,meteohub,2013-07-18 11:22:00,
2013-07-18 07:27:00,71.8,70.5,30.11,West,267,0.0,0.0,93,0.00,,,0.00,193.0,meteohub,2013-07-18 11:27:00,
2013-07-18 07:32:00,72.3,71.1,30.12,West,267,0.0,0.0,93,0.00,,,0.00,195.0,meteohub,2013-07-18 11:32:00,
2013-07-18 07:37:00,72.7,71.4,30.12,West,267,0.0,0.0,93,0.00,,,0.00,176.0,meteohub,2013-07-18 11:37:00,
2013-07-18 07:42:00,72.9,71.6,30.12,West,269,0.0,0.0,93,0.00,,,0.00,149.0,meteohub,2013-07-18 11:42:00,
2013-07-18 07:48:00,73.2,72.0,30.11,West,269,0.0,0.0,93,0.00,,,0.00,142.0,meteohub,2013-07-18 11:48:00,
2013-07-18 07:54:00,73.6,72.3,30.12,West,269,0.0,0.0,93,0.00,,,0.00,139.0,meteohub,2013-07-18 11:54:00,
2013-07-18 08:00:00,73.8,72.5,30.12,West,269,0.0,0.0,93,0.00,,,0.00,216.0,meteohub,2013-07-18 12:00:00,
2013-07-18 08:06:00,74.1,72.9,30.12,West,269,0.0,0.0,93,0.00,,,0.00,237.0,meteohub,2013-07-18 12:06:00,
2013-07-18 08:12:00,74.5,73.2,30.12,West,269,0.0,0.0,93,0.00,,,0.00,216.0,meteohub,2013-07-18 12:12:00,
2013-07-18 08:17:00,74.7,73.4,30.12,West,269,0.0,0.0,93,0.00,,,0.00,243.0,meteohub,2013-07-18 12:17:00,
2013-07-18 08:22:00,75.0,73.8,30.12,West,269,0.0,0.0,93,0.00,,,0.00,285.0,meteohub,2013-07-18 12:22:00,
2013-07-18 08:27:00,75.4,73.8,30.12,West,269,0.0,0.0,92,0.00,,,0.00,327.0,meteohub,2013-07-18 12:27:00,
2013-07-18 08:32:00,75.7,74.1,30.12,West,269,0.0,0.0,92,0.00,,,0.00,322.0,meteohub,2013-07-18 12:32:00,
2013-07-18 08:37:00,76.1,74.3,30.12,West,269,0.0,0.0,91,0.00,,,0.00,325.0,meteohub,2013-07-18 12:37:00,
2013-07-18 08:42:00,76.5,74.3,30.12,West,269,0.0,0.0,90,0.00,,,0.00,345.0,meteohub,2013-07-18 12:42:00,
2013-07-18 08:47:00,77.2,75.0,30.12,West,269,0.0,0.0,90,0.00,,,0.00,366.0,meteohub,2013-07-18 12:47:00,
2013-07-18 08:52:00,77.7,75.6,30.12,West,269,0.0,0.0,90,0.00,,,0.00,374.0,meteohub,2013-07-18 12:52:00,
2013-07-18 08:57:00,78.1,75.2,30.12,West,269,0.0,0.0,88,0.00,,,0.00,434.0,meteohub,2013-07-18 12:57:00,
2013-07-18 09:02:00,78.6,75.7,30.13,West,269,0.0,0.0,88,0.00,,,0.00,457.0,meteohub,2013-07-18 13:02:00,
2013-07-18 09:07:00,79.3,75.7,30.13,West,269,0.0,0.0,86,0.00,,,0.00,362.0,meteohub,2013-07-18 13:07:00,
2013-07-18 09:12:00,80.1,76.1,30.13,West,269,0.0,0.0,85,0.00,,,0.00,524.0,meteohub,2013-07-18 13:12:00,
2013-07-18 09:17:00,80.6,76.6,30.13,West,269,0.0,0.0,85,0.00,,,0.00,471.0,meteohub,2013-07-18 13:17:00,
2013-07-18 09:22:00,81.5,77.5,30.13,West,269,0.0,0.0,85,0.00,,,0.00,561.0,meteohub,2013-07-18 13:22:00,
2013-07-18 09:27:00,82.0,77.7,30.12,West,269,0.0,0.0,84,0.00,,,0.00,587.0,meteohub,2013-07-18 13:27:00,
2013-07-18 09:32:00,82.6,78.6,30.12,SSW,206,0.0,0.0,85,0.00,,,0.00,633.0,meteohub,2013-07-18 13:32:00,
2013-07-18 09:37:00,82.9,77.9,30.12,SSW,206,0.0,0.0,82,0.00,,,0.00,396.0,meteohub,2013-07-18 13:37:00,
2013-07-18 09:42:00,83.5,78.8,30.13,SSW,206,0.0,0.0,83,0.00,,,0.00,357.0,meteohub,2013-07-18 13:42:00,
2013-07-18 09:47:00,83.7,78.3,30.12,SSW,206,0.0,0.0,81,0.00,,,0.00,243.0,meteohub,2013-07-18 13:47:00,
2013-07-18 09:52:00,83.7,77.5,30.12,SSW,206,0.0,0.0,79,0.00,,,0.00,294.0,meteohub,2013-07-18 13:52:00,
2013-07-18 09:57:00,84.0,77.5,30.12,ENE,77,0.0,0.0,78,0.00,,,0.00,698.0,meteohub,2013-07-18 13:57:00,
2013-07-18 10:02:00,84.4,78.3,30.12,NE,53,0.0,0.0,79,0.00,,,0.00,469.0,meteohub,2013-07-18 14:02:00,
2013-07-18 10:07:00,84.9,78.8,30.12,NE,53,0.0,0.0,79,0.00,,,0.00,457.0,meteohub,2013-07-18 14:07:00,
2013-07-18 10:12:00,85.1,79.3,30.12,NE,53,0.0,0.0,80,0.00,,,0.00,686.0,meteohub,2013-07-18 14:12:00,
2013-07-18 10:17:00,85.3,79.2,30.12,NE,50,0.0,0.0,79,0.00,,,0.00,779.0,meteohub,2013-07-18 14:17:00,
2013-07-18 10:22:00,85.5,78.6,30.12,NE,50,0.0,0.0,77,0.00,,,0.00,427.0,meteohub,2013-07-18 14:22:00,
2013-07-18 10:29:00,85.6,79.5,30.12,NE,50,0.0,0.0,79,0.00,,,0.00,318.0,meteohub,2013-07-18 14:29:00,
2013-07-18 10:35:00,85.6,79.9,30.12,NE,50,0.0,0.0,80,0.00,,,0.00,306.0,meteohub,2013-07-18 14:35:00,
2013-07-18 10:41:00,85.5,79.3,30.12,NE,50,0.0,0.0,79,0.00,,,0.00,278.0,meteohub,2013-07-18 14:41:00,
2013-07-18 10:47:00,85.5,79.7,30.12,NE,50,0.0,0.0,80,0.00,,,0.00,404.0,meteohub,2013-07-18 14:47:00,
2013-07-18 10:52:00,85.5,79.0,30.12,NE,50,0.0,0.0,78,0.00,,,0.00,272.0,meteohub,2013-07-18 14:52:00,
2013-07-18 10:57:00,85.3,79.9,30.12,NE,50,0.0,0.0,81,0.00,,,0.00,234.0,meteohub,2013-07-18 14:57:00,
2013-07-18 11:02:00,85.3,79.5,30.12,NE,50,0.0,0.0,80,0.00,,,0.00,225.0,meteohub,2013-07-18 15:02:00,
2013-07-18 11:07:00,85.3,79.5,30.12,NE,50,0.0,0.0,80,0.00,,,0.00,272.0,meteohub,2013-07-18 15:07:00,
2013-07-18 11:12:00,85.1,79.7,30.12,NE,50,0.0,0.0,81,0.00,,,0.00,352.0,meteohub,2013-07-18 15:12:00,
2013-07-18 11:17:00,85.1,79.7,30.12,NE,50,0.0,0.0,81,0.00,,,0.00,385.0,meteohub,2013-07-18 15:17:00,
2013-07-18 11:22:00,85.1,79.7,30.12,NE,50,0.0,0.0,81,0.00,,,0.00,357.0,meteohub,2013-07-18 15:22:00,
2013-07-18 11:27:00,85.3,79.2,30.12,NE,50,0.0,0.0,79,0.00,,,0.00,366.0,meteohub,2013-07-18 15:27:00,
2013-07-18 11:32:00,85.3,78.8,30.12,NE,50,0.0,0.0,78,0.00,,,0.00,450.0,meteohub,2013-07-18 15:32:00,
2013-07-18 11:37:00,85.8,78.6,30.13,NE,50,0.0,0.0,76,0.00,,,0.00,522.0,meteohub,2013-07-18 15:37:00,
2013-07-18 11:42:00,86.4,79.0,30.12,NE,50,0.0,0.0,76,0.00,,,0.00,371.0,meteohub,2013-07-18 15:42:00,
2013-07-18 11:47:00,86.7,77.9,30.12,ENE,60,0.0,0.0,72,0.00,,,0.00,1035.0,meteohub,2013-07-18 15:47:00,
2013-07-18 11:52:00,86.7,78.3,30.12,SSE,153,0.0,0.0,73,0.00,,,0.00,515.0,meteohub,2013-07-18 15:52:00,
2013-07-18 11:57:00,86.7,78.3,30.12,SSE,157,0.0,0.0,73,0.00,,,0.00,429.0,meteohub,2013-07-18 15:57:00,
2013-07-18 12:02:00,86.9,78.8,30.12,SSE,157,0.0,0.0,74,0.00,,,0.00,401.0,meteohub,2013-07-18 16:02:00,
2013-07-18 12:07:00,86.9,79.5,30.12,SSE,157,0.0,0.0,76,0.00,,,0.00,492.0,meteohub,2013-07-18 16:07:00,
2013-07-18 12:12:00,87.1,79.3,30.12,SSE,157,0.0,0.0,75,0.00,,,0.00,967.0,meteohub,2013-07-18 16:12:00,
2013-07-18 12:17:00,87.1,79.0,30.11,South,180,0.0,0.0,74,0.00,,,0.00,1000.0,meteohub,2013-07-18 16:17:00,
2013-07-18 12:22:00,87.3,78.8,30.11,South,177,0.0,0.0,73,0.00,,,0.00,967.0,meteohub,2013-07-18 16:22:00,
2013-07-18 12:27:00,87.8,79.7,30.11,South,178,0.0,0.0,74,0.00,,,0.00,891.0,meteohub,2013-07-18 16:27:00,
2013-07-18 12:32:00,88.0,78.6,30.11,South,183,0.0,0.0,71,0.00,,,0.00,313.0,meteohub,2013-07-18 16:32:00,
2013-07-18 12:37:00,88.0,78.3,30.11,South,183,0.0,0.0,70,0.00,,,0.00,318.0,meteohub,2013-07-18 16:37:00,
2013-07-18 12:43:00,88.0,79.9,30.11,South,183,0.0,0.0,74,0.00,,,0.00,341.0,meteohub,2013-07-18 16:43:00,
2013-07-18 12:49:00,88.0,81.3,30.11,South,183,0.0,0.0,78,0.00,,,0.00,304.0,meteohub,2013-07-18 16:49:00,
2013-07-18 12:55:00,87.6,81.5,30.10,South,183,0.0,0.0,79,0.00,,,0.00,322.0,meteohub,2013-07-18 16:55:00,
2013-07-18 13:01:00,87.4,82.4,30.10,South,183,0.0,0.0,82,0.00,,,0.00,1079.0,meteohub,2013-07-18 17:01:00,
2013-07-18 13:07:00,87.6,82.2,30.10,South,183,0.0,0.0,81,0.00,,,0.00,345.0,meteohub,2013-07-18 17:07:00,
2013-07-18 13:12:00,87.6,81.0,30.10,South,183,0.0,0.0,78,0.00,,,0.00,396.0,meteohub,2013-07-18 17:12:00,
2013-07-18 13:17:00,88.0,81.3,30.10,South,183,0.0,0.0,78,0.00,,,0.00,981.0,meteohub,2013-07-18 17:17:00,
2013-07-18 13:22:00,88.5,78.8,30.10,SSE,161,0.0,0.0,70,0.00,,,0.00,1048.0,meteohub,2013-07-18 17:22:00,
2013-07-18 13:27:00,88.9,79.5,30.09,SSE,161,0.0,0.0,71,0.00,,,0.00,376.0,meteohub,2013-07-18 17:27:00,
2013-07-18 13:32:00,88.9,78.3,30.09,South,173,0.0,0.0,68,0.00,,,0.00,1113.0,meteohub,2013-07-18 17:32:00,
2013-07-18 13:37:00,89.1,78.4,30.09,South,182,0.0,0.0,68,0.00,,,0.00,534.0,meteohub,2013-07-18 17:37:00,
2013-07-18 13:42:00,89.1,78.8,30.09,South,182,0.0,0.0,69,0.00,,,0.00,663.0,meteohub,2013-07-18 17:42:00,
2013-07-18 13:47:00,89.1,78.8,30.09,South,182,0.0,0.0,69,0.00,,,0.00,527.0,meteohub,2013-07-18 17:47:00,
2013-07-18 13:52:00,89.1,78.8,30.09,South,182,0.0,0.0,69,0.00,,,0.00,279.0,meteohub,2013-07-18 17:52:00,
2013-07-18 13:57:00,88.9,79.2,30.09,South,182,0.0,0.0,70,0.00,,,0.00,304.0,meteohub,2013-07-18 17:57:00,
2013-07-18 14:02:00,88.9,79.2,30.09,South,182,0.0,0.0,70,0.00,,,0.00,424.0,meteohub,2013-07-18 18:02:00,
2013-07-18 14:07:00,88.9,80.8,30.09,South,182,0.0,0.0,74,0.00,,,0.00,308.0,meteohub,2013-07-18 18:07:00,
2013-07-18 14:12:00,89.1,81.7,30.09,South,182,0.0,0.0,76,0.00,,,0.00,949.0,meteohub,2013-07-18 18:12:00,
2013-07-18 14:17:00,89.4,78.3,30.09,South,182,0.0,0.0,67,0.00,,,0.00,900.0,meteohub,2013-07-18 18:17:00,
2013-07-18 14:22:00,90.0,78.4,30.08,WNW,300,0.0,0.0,66,0.00,,,0.00,937.0,meteohub,2013-07-18 18:22:00,
2013-07-18 14:27:00,90.0,77.5,30.08,South,188,0.0,6.0,64,0.00,,,0.00,921.0,meteohub,2013-07-18 18:27:00,
2013-07-18 14:32:00,90.3,76.5,30.08,South,184,4.0,6.0,61,0.00,,,0.00,930.0,meteohub,2013-07-18 18:32:00,
2013-07-18 14:37:00,90.7,77.2,30.08,East,101,3.0,6.0,62,0.00,,,0.00,889.0,meteohub,2013-07-18 18:37:00,
2013-07-18 14:42:00,90.9,79.3,30.08,East,97,0.0,5.0,66,0.00,,,0.00,954.0,meteohub,2013-07-18 18:42:00,
2013-07-18 14:47:00,91.2,82.6,30.08,East,97,0.0,5.0,73,0.00,,,0.00,979.0,meteohub,2013-07-18 18:47:00,
2013-07-18 14:52:00,91.4,80.2,30.08,East,98,0.0,4.0,67,0.00,,,0.00,598.0,meteohub,2013-07-18 18:52:00,
2013-07-18 14:57:00,91.4,78.8,30.08,ENE,60,0.0,2.0,64,0.00,,,0.00,956.0,meteohub,2013-07-18 18:57:00,
2013-07-18 15:02:00,91.8,80.1,30.07,ENE,60,0.0,3.0,66,0.00,,,0.00,926.0,meteohub,2013-07-18 19:02:00,
2013-07-18 15:07:00,92.3,79.7,30.07,ENE,60,0.0,3.0,64,0.00,,,0.00,874.0,meteohub,2013-07-18 19:07:00,
2013-07-18 15:12:00,92.7,82.2,30.07,ENE,60,0.0,3.0,69,0.00,,,0.00,875.0,meteohub,2013-07-18 19:12:00,
2013-07-18 15:18:00,93.0,81.3,30.06,ENE,60,0.0,2.0,66,0.00,,,0.00,935.0,meteohub,2013-07-18 19:18:00,
2013-07-18 15:24:00,93.0,78.4,30.07,SSE,161,0.0,2.0,60,0.00,,,0.00,267.0,meteohub,2013-07-18 19:24:00,
2013-07-18 15:30:00,92.5,77.0,30.07,SSW,194,1.0,2.0,58,0.00,,,0.00,800.0,meteohub,2013-07-18 19:30:00,
2013-07-18 15:36:00,92.5,78.1,30.07,South,170,1.0,6.0,60,0.00,,,0.00,267.0,meteohub,2013-07-18 19:36:00,
2013-07-18 15:42:00,91.8,77.9,30.06,SSE,147,3.0,6.0,61,0.00,,,0.00,334.0,meteohub,2013-07-18 19:42:00,
2013-07-18 15:47:00,91.2,78.3,30.06,SE,146,1.0,6.0,63,0.00,,,0.00,239.0,meteohub,2013-07-18 19:47:00,
2013-07-18 15:54:00,91.0,76.6,30.05,SE,142,1.0,5.0,60,0.00,,,0.00,728.0,meteohub,2013-07-18 19:54:00,
2013-07-18 16:00:00,91.2,76.8,30.05,SSW,207,1.0,6.0,60,0.00,,,0.00,738.0,meteohub,2013-07-18 20:00:00,
2013-07-18 16:06:00,91.2,77.4,30.05,South,175,1.0,6.0,61,0.00,,,0.00,717.0,meteohub,2013-07-18 20:06:00,
2013-07-18 16:12:00,91.0,77.2,30.05,SSW,205,3.0,6.0,61,0.00,,,0.00,687.0,meteohub,2013-07-18 20:12:00,
2013-07-18 16:17:00,90.9,77.9,30.05,SW,223,1.0,5.0,63,0.00,,,0.00,671.0,meteohub,2013-07-18 20:17:00,
2013-07-18 16:22:00,91.0,79.9,30.04,WSW,242,0.0,5.0,67,0.00,,,0.00,643.0,meteohub,2013-07-18 20:22:00,
2013-07-18 16:27:00,91.2,77.4,30.04,South,187,0.0,5.0,61,0.00,,,0.00,626.0,meteohub,2013-07-18 20:27:00,
2013-07-18 16:32:00,91.4,77.9,30.04,SSW,192,0.0,5.0,62,0.00,,,0.00,608.0,meteohub,2013-07-18 20:32:00,
2013-07-18 16:37:00,91.6,78.6,30.04,NNW,327,3.0,5.0,63,0.00,,,0.00,589.0,meteohub,2013-07-18 20:37:00,
2013-07-18 16:42:00,91.4,77.0,30.04,SW,217,0.0,5.0,60,0.00,,,0.00,580.0,meteohub,2013-07-18 20:42:00,
2013-07-18 16:47:00,91.6,78.1,30.03,West,266,0.0,5.0,62,0.00,,,0.00,563.0,meteohub,2013-07-18 20:47:00,
2013-07-18 16:52:00,91.6,78.1,30.03,WSW,243,1.0,4.0,62,0.00,,,0.00,555.0,meteohub,2013-07-18 20:52:00,
2013-07-18 16:57:00,91.8,78.8,30.03,WSW,256,0.0,4.0,63,0.00,,,0.00,548.0,meteohub,2013-07-18 20:57:00,
2013-07-18 17:02:00,92.1,79.2,30.03,WSW,248,0.0,4.0,63,0.00,,,0.00,508.0,meteohub,2013-07-18 21:02:00,
2013-07-18 17:07:00,91.8,78.3,30.03,WSW,248,0.0,2.0,62,0.00,,,0.00,265.0,meteohub,2013-07-18 21:07:00,
2013-07-18 17:12:00,91.4,80.2,30.03,WSW,248,0.0,2.0,67,0.00,,,0.00,487.0,meteohub,2013-07-18 21:12:00,
2013-07-18 17:17:00,91.2,80.4,30.03,WSW,249,0.0,2.0,68,0.00,,,0.00,494.0,meteohub,2013-07-18 21:17:00,
2013-07-18 17:22:00,91.2,79.5,30.02,SW,225,1.0,2.0,66,0.00,,,0.00,478.0,meteohub,2013-07-18 21:22:00,
2013-07-18 17:27:00,91.2,78.6,30.03,SW,225,0.0,2.0,64,0.00,,,0.00,455.0,meteohub,2013-07-18 21:27:00,
2013-07-18 17:32:00,91.4,79.3,30.02,SW,225,1.0,2.0,65,0.00,,,0.00,432.0,meteohub,2013-07-18 21:32:00,
2013-07-18 17:37:00,91.6,79.9,30.02,SW,225,0.0,2.0,66,0.00,,,0.00,422.0,meteohub,2013-07-18 21:37:00,
2013-07-18 17:42:00,91.6,80.4,30.03,SSE,159,0.0,3.0,67,0.00,,,0.00,392.0,meteohub,2013-07-18 21:42:00,
2013-07-18 17:47:00,91.8,81.0,30.03,SSE,159,0.0,3.0,68,0.00,,,0.00,387.0,meteohub,2013-07-18 21:47:00,
2013-07-18 17:52:00,91.6,81.3,30.03,SW,234,0.0,3.0,69,0.00,,,0.00,366.0,meteohub,2013-07-18 21:52:00,
2013-07-18 17:57:00,91.6,81.3,30.03,SW,234,0.0,2.0,69,0.00,,,0.00,353.0,meteohub,2013-07-18 21:57:00,
2013-07-18 18:02:00,91.6,81.7,30.02,SW,234,0.0,2.0,70,0.00,,,0.00,338.0,meteohub,2013-07-18 22:02:00,
2013-07-18 18:07:00,91.8,81.5,30.02,SW,234,2.0,2.0,69,0.00,,,0.00,315.0,meteohub,2013-07-18 22:07:00,
2013-07-18 18:12:00,91.8,80.6,30.02,SW,234,0.0,2.0,67,0.00,,,0.00,292.0,meteohub,2013-07-18 22:12:00,
2013-07-18 18:17:00,91.6,82.0,30.02,SW,234,0.0,2.0,71,0.00,,,0.00,269.0,meteohub,2013-07-18 22:17:00,
2013-07-18 18:22:00,91.4,81.9,30.02,SW,234,0.0,2.0,71,0.00,,,0.00,264.0,meteohub,2013-07-18 22:22:00,
2013-07-18 18:27:00,91.0,82.0,30.02,SW,234,0.0,1.0,72,0.00,,,0.00,250.0,meteohub,2013-07-18 22:27:00,
2013-07-18 18:32:00,90.7,81.7,30.02,SW,234,0.0,1.0,72,0.00,,,0.00,227.0,meteohub,2013-07-18 22:32:00,
2013-07-18 18:37:00,90.5,81.9,30.02,SW,234,0.0,1.0,73,0.00,,,0.00,195.0,meteohub,2013-07-18 22:37:00,
2013-07-18 18:42:00,90.5,81.9,30.02,SW,234,0.0,0.0,73,0.00,,,0.00,169.0,meteohub,2013-07-18 22:42:00,
2013-07-18 18:47:00,90.0,81.3,30.02,SW,234,0.0,0.0,73,0.00,,,0.00,95.0,meteohub,2013-07-18 22:47:00,
2013-07-18 18:52:00,89.6,81.0,30.02,SW,234,0.0,0.0,73,0.00,,,0.00,39.0,meteohub,2013-07-18 22:52:00,
2013-07-18 18:57:00,88.7,80.1,30.02,SW,234,0.0,0.0,73,0.00,,,0.00,28.0,meteohub,2013-07-18 22:57:00,
2013-07-18 19:02:00,87.4,80.1,30.02,SW,234,0.0,0.0,76,0.00,,,0.00,25.0,meteohub,2013-07-18 23:02:00,
2013-07-18 19:07:00,86.4,79.9,30.02,SW,234,0.0,0.0,78,0.00,,,0.00,23.0,meteohub,2013-07-18 23:07:00,
2013-07-18 19:14:00,84.9,78.4,30.02,SW,234,0.0,0.0,78,0.00,,,0.00,21.0,meteohub,2013-07-18 23:14:00,
2013-07-18 19:20:00,84.2,78.4,30.03,SW,234,0.0,1.0,80,0.00,,,0.00,21.0,meteohub,2013-07-18 23:20:00,
2013-07-18 19:27:00,83.5,78.1,30.03,SW,234,0.0,1.0,81,0.00,,,0.00,23.0,meteohub,2013-07-18 23:27:00,
2013-07-18 19:32:00,83.1,77.7,30.03,SW,234,0.0,0.0,81,0.00,,,0.00,23.0,meteohub,2013-07-18 23:32:00,
2013-07-18 19:39:00,82.6,77.5,30.03,SW,234,0.0,0.0,82,0.00,,,0.00,23.0,meteohub,2013-07-18 23:39:00,
2013-07-18 19:45:00,82.2,77.5,30.03,SW,234,0.0,0.0,83,0.00,,,0.00,21.0,meteohub,2013-07-18 23:45:00,
2013-07-18 19:54:00,81.7,77.4,30.03,SW,234,0.0,0.0,84,0.00,,,0.00,18.0,meteohub,2013-07-18 23:54:00,
2013-07-18 20:00:00,81.3,77.4,30.03,SW,234,0.0,0.0,85,0.00,,,0.00,16.0,meteohub,2013-07-19 00:00:00,
2013-07-18 20:06:00,81.0,77.0,30.03,SW,234,0.0,0.0,85,0.00,,,0.00,16.0,meteohub,2013-07-19 00:06:00,
2013-07-18 20:12:00,80.6,77.0,30.04,SW,234,0.0,0.0,86,0.00,,,0.00,18.0,meteohub,2013-07-19 00:12:00,
2013-07-18 20:18:00,80.4,76.8,30.04,SW,234,0.0,0.0,86,0.00,,,0.00,12.0,meteohub,2013-07-19 00:18:00,
2013-07-18 20:24:00,80.2,77.0,30.04,SW,234,0.0,0.0,87,0.00,,,0.00,7.0,meteohub,2013-07-19 00:24:00,
2013-07-18 20:30:00,80.1,76.8,30.04,SW,234,0.0,0.0,87,0.00,,,0.00,0.0,meteohub,2013-07-19 00:30:00,
2013-07-18 20:36:00,79.9,76.6,30.04,SW,234,0.0,0.0,87,0.00,,,0.00,0.0,meteohub,2013-07-19 00:36:00,
2013-07-18 20:42:00,79.7,76.8,30.04,SW,234,0.0,0.0,88,0.00,,,0.00,0.0,meteohub,2013-07-19 00:42:00,
2013-07-18 20:48:00,79.3,76.5,30.04,SW,234,0.0,0.0,88,0.00,,,0.00,0.0,meteohub,2013-07-19 00:48:00,
2013-07-18 20:54:00,79.0,76.1,30.04,SW,234,0.0,0.0,88,0.00,,,0.00,0.0,meteohub,2013-07-19 00:54:00,
2013-07-18 21:01:00,78.8,75.9,30.04,SW,234,0.0,0.0,88,0.00,,,0.00,0.0,meteohub,2013-07-19 01:01:00,
2013-07-18 21:07:00,78.6,75.7,30.04,SW,234,0.0,0.0,88,0.00,,,0.00,0.0,meteohub,2013-07-19 01:07:00,
2013-07-18 21:13:00,78.4,75.9,30.04,SW,234,0.0,0.0,89,0.00,,,0.00,0.0,meteohub,2013-07-19 01:13:00,
2013-07-18 21:19:00,78.3,75.7,30.04,SW,234,0.0,0.0,89,0.00,,,0.00,0.0,meteohub,2013-07-19 01:19:00,
2013-07-18 21:25:00,78.1,75.6,30.05,SW,234,0.0,0.0,89,0.00,,,0.00,0.0,meteohub,2013-07-19 01:25:00,
2013-07-18 21:31:00,77.9,75.4,30.04,SW,234,0.0,0.0,89,0.00,,,0.00,0.0,meteohub,2013-07-19 01:31:00,
2013-07-18 21:37:00,77.7,75.2,30.05,SW,234,0.0,0.0,89,0.00,,,0.00,0.0,meteohub,2013-07-19 01:37:00,
2013-07-18 21:43:00,77.5,75.4,30.05,SW,234,0.0,0.0,90,0.00,,,0.00,0.0,meteohub,2013-07-19 01:43:00,
2013-07-18 21:49:00,77.4,75.2,30.05,SW,234,0.0,0.0,90,0.00,,,0.00,0.0,meteohub,2013-07-19 01:49:00,
2013-07-18 21:52:00,77.4,75.2,30.05,SW,234,0.0,0.0,90,0.00,,,0.00,0.0,meteohub,2013-07-19 01:52:00,
2013-07-18 21:58:00,77.2,75.0,30.05,SW,234,0.0,0.0,90,0.00,,,0.00,0.0,meteohub,2013-07-19 01:58:00,
2013-07-18 22:05:00,77.0,74.8,30.06,SW,234,0.0,0.0,90,0.00,,,0.00,0.0,meteohub,2013-07-19 02:05:00,
2013-07-18 22:11:00,77.0,74.8,30.06,SW,233,0.0,0.0,90,0.00,,,0.00,0.0,meteohub,2013-07-19 02:11:00,
2013-07-18 22:17:00,76.8,74.7,30.06,SW,233,0.0,0.0,90,0.00,,,0.00,0.0,meteohub,2013-07-19 02:17:00,
2013-07-18 22:23:00,76.8,74.7,30.06,SW,233,0.0,0.0,90,0.00,,,0.00,0.0,meteohub,2013-07-19 02:23:00,
2013-07-18 22:29:00,76.6,74.8,30.06,SW,233,0.0,0.0,91,0.00,,,0.00,0.0,meteohub,2013-07-19 02:29:00,
2013-07-18 22:35:00,76.6,74.8,30.06,SW,233,0.0,0.0,91,0.00,,,0.00,0.0,meteohub,2013-07-19 02:35:00,
2013-07-18 22:41:00,76.5,74.7,30.06,SW,233,0.0,0.0,91,0.00,,,0.00,0.0,meteohub,2013-07-19 02:41:00,
2013-07-18 22:47:00,76.6,74.8,30.06,SW,233,0.0,0.0,91,0.00,,,0.00,0.0,meteohub,2013-07-19 02:47:00,
2013-07-18 22:53:00,76.5,74.7,30.06,SW,233,0.0,0.0,91,0.00,,,0.00,0.0,meteohub,2013-07-19 02:53:00,
2013-07-18 22:59:00,76.3,74.5,30.06,SW,233,0.0,0.0,91,0.00,,,0.00,0.0,meteohub,2013-07-19 02:59:00,
2013-07-18 23:05:00,76.1,74.3,30.05,SW,233,0.0,0.0,91,0.00,,,0.00,0.0,meteohub,2013-07-19 03:05:00,
2013-07-18 23:12:00,76.1,74.3,30.05,SW,233,0.0,0.0,91,0.00,,,0.00,0.0,meteohub,2013-07-19 03:12:00,
2013-07-18 23:18:00,75.9,74.1,30.05,SW,233,0.0,0.0,91,0.00,,,0.00,0.0,meteohub,2013-07-19 03:18:00,
2013-07-18 23:24:00,75.9,74.1,30.05,SW,233,0.0,0.0,91,0.00,,,0.00,0.0,meteohub,2013-07-19 03:24:00,
2013-07-18 23:30:00,75.7,73.9,30.05,SW,233,0.0,0.0,91,0.00,,,0.00,0.0,meteohub,2013-07-19 03:30:00,
2013-07-18 23:36:00,75.6,73.8,30.05,SW,233,0.0,0.0,91,0.00,,,0.00,0.0,meteohub,2013-07-19 03:36:00,
2013-07-18 23:42:00,75.6,73.8,30.05,SW,233,0.0,0.0,91,0.00,,,0.00,0.0,meteohub,2013-07-19 03:42:00,
2013-07-18 23:48:00,75.4,73.6,30.05,SW,233,0.0,0.0,91,0.00,,,0.00,0.0,meteohub,2013-07-19 03:48:00,
2013-07-18 23:54:00,75.4,73.6,30.05,SW,233,0.0,0.0,91,0.00,,,0.00,0.0,meteohub,2013-07-19 03:54:00,